Location: Birdton
(46.1166°N, 66.8166°W)
Time: 15:22:32
(UTC-03:00)

Daily predictions for brighter satellites

Satellite Brightness Start Highest point End
(mag) Time Altitude Azimuth Time Altitude Azimuth Time Altitude Azimuth
Cosmos 2184 Rocket 4.1 21:26:27 10° S 21:32:37 86° W 21:38:51 10° N
Envisat 3.2 21:30:46 10° SSE 21:35:45 61° ENE 21:40:47 10° N
YAOGAN 11 4.5 21:32:44 10° S 21:37:16 75° WSW 21:41:51 10° NNW
H-2A R/B 2.1 21:36:50 10° SSE 21:41:04 62° ENE 21:45:14 10° N
Cosmos 1862 3.7 21:37:18 10° SSE 21:41:12 46° E 21:45:07 10° NNE
Cosmos 1606 2.7 21:40:24 10° N 21:44:21 80° E 21:48:17 10° SSE
COSMOS 2487 2.6 21:41:50 10° NNW 21:45:27 65° ENE 21:49:01 10° SSE
Gbstr 26 Del rocket 4.3 21:41:57 10° WNW 21:47:28 47° N 21:51:57 10° E
Meteor 1-27 Rocket 3.7 21:42:23 10° N 21:47:59 86° ENE 21:53:31 10° S
ERS-1 Rocket 3.3 21:45:35 10° S 21:50:37 70° WSW 21:55:39 10° NNW
Cosmos 407 Rocket 4.2 21:45:58 10° NNW 21:51:07 55° WSW 21:56:18 10° S
ALOS 4.3 21:47:09 10° SSW 21:51:09 28° W 21:55:12 10° NW
Cosmos 1140 Rocket 3.6 21:49:18 10° NNW 21:54:26 65° ENE 21:59:33 10° SSE
SL-8 R/B 3.9 21:50:22 10° W 21:55:13 79° NNW 22:00:03 10° ENE
Okean 3 3.5 21:55:38 10° N 21:59:57 73° E 22:04:10 10° SSE
CZ-4 SHROUD 3.5 21:59:59 13° SSE 22:02:38 47° ENE 22:05:38 10° N
Cosmos 1782 4.3 21:59:45 10° NNW 22:03:29 36° W 22:07:12 10° SSW
PSLV R/B 3.3 22:00:59 13° SSE 22:03:30 51° ENE 22:06:24 10° N
H-2A R/B 3.5 22:01:35 11° ESE 22:05:41 25° ENE 22:09:53 10° N
Cosmos 1452 Rocket 3.5 22:00:43 10° SSW 22:05:59 89° ESE 22:11:19 10° NNE
CZ-4B R/B 4.2 22:01:52 10° NNE 22:06:16 31° E 22:10:17 11° SSE
ATLAS 5 CENTAUR R/B 4.4 22:04:10 10° WNW 22:08:38 22° WSW 22:13:17 10° SSW
ARGOS 3.6 22:05:00 12° SE 22:09:38 46° ENE 22:14:44 10° N
Okean 2 Rocket 3.1 22:09:06 10° S 22:13:28 61° E 22:17:48 10° NNE
SL-08 RB Rocket 4.4 22:11:18 15° SE 22:14:47 40° ENE 22:19:08 10° N
Nadezhda 3 Rocket 4.4 22:10:29 10° NNW 22:16:49 69° W 22:23:08 10° S
Meteor 2-13 Rocket 4.5 22:14:03 10° S 22:20:09 68° E 22:26:17 10° NNE
Cosmos 1242 Rocket 2.5 22:17:07 10° N 22:20:47 86° ENE 22:23:49 15° SSE
Terra 3.2 22:17:54 14° ESE 22:20:55 25° ENE 22:24:46 10° N
SPOT 1/Viking Rocket 3.7 22:16:28 14° SSE 22:20:56 64° ENE 22:26:08 10° N
Cosmos 2218 Rocket 4.4 22:15:45 10° SSE 22:21:50 48° E 22:27:57 10° NNE
Cosmos 1939 Rocket 4.2 22:18:24 10° SSW 22:22:01 37° W 22:25:43 10° NNW
Cosmos 1238 Rocket 3.3 22:20:45 10° NNW 22:23:55 49° W 22:27:36 10° S
Cosmos 1782 Rocket 3.6 22:19:47 10° S 22:24:15 86° W 22:28:46 10° N
YAOGAN 6 2.4 22:21:31 15° SSE 22:24:19 87° E 22:27:53 10° NNW
Cosmos 1184 Rocket 3.0 22:21:07 10° SSW 22:24:27 73° WNW 22:27:48 10° N
ISS -3.5 22:22:43 10° WSW 22:25:58 78° SSE 22:29:14 10° ENE
Cosmos 1408 3.2 22:23:10 10° SSW 22:26:47 57° WNW 22:30:23 10° N
SPOT 5 3.5 22:25:40 10° S 22:30:55 63° WSW 22:36:16 10° NNW
DNEPR-1 R/B 4.2 22:26:03 10° NW 22:31:28 60° WSW 22:34:51 18° SSE
Cosmos 1833 Rocket 2.9 22:26:17 10° NNW 22:31:52 60° ENE 22:35:46 20° SE
UNK 4.4 22:26:51 10° NNE 22:33:06 72° ESE 22:39:01 10° S
Cosmos 1727 Rocket 4.3 22:27:18 10° N 22:33:20 52° ENE 22:37:38 19° SE
Cosmos 1850 Rocket 4.2 22:30:25 10° NNW 22:35:44 76° WSW 22:39:55 17° SSE
Cosmos 1975 Rocket 3.7 22:32:25 10° NNW 22:36:40 54° W 22:40:50 10° S
MetOp-A 4.4 22:31:46 10° S 22:36:59 66° WSW 22:42:20 10° NNW
Cosmos 1825 3.4 22:33:50 10° SSW 22:37:29 43° WNW 22:41:10 10° N
Cosmos 2278 Rocket 2.5 22:32:15 10° SSW 22:37:54 72° WNW 22:43:37 10° NNE
Cosmos 1844 Rocket 4.3 22:33:23 10° WSW 22:38:37 38° NW 22:43:53 10° NNE
CARTOSAT-1 4.5 22:38:35 21° ESE 22:40:45 35° ENE 22:44:41 10° N
Cosmos 2084 4.2 22:37:07 10° WSW 22:40:51 49° NW 22:44:36 10° NNE
USA 229 DEB 3.8 22:33:47 10° NW 22:40:56 85° NE 22:46:06 21° SE
USA 229 3.8 22:33:53 10° NW 22:41:02 84° NE 22:46:12 21° SE
Okean 1 4.5 22:37:41 10° NNE 22:41:19 30° ENE 22:42:52 23° ESE
AVUM R/B 3.8 22:39:09 10° NNW 22:42:37 51° ENE 22:44:04 29° ESE
BREEZE-M DEB 4.3 22:39:42 10° WSW 22:43:47 78° NNW 22:46:25 10° ENE
Lacrosse 5 3.7 22:45:59 13° E 22:45:59 13° E 22:47:08 10° E
Cosmos 1536 Rocket 3.6 22:45:06 10° N 22:49:35 67° E 22:52:00 26° SSE
Intercosmos 25 3.3 22:47:58 11° SSW 22:51:16 60° W 22:54:25 10° N
Meteor 1-18 Rocket 4.3 22:46:22 10° N 22:52:18 74° ENE 22:56:10 23° SSE
Cosmos 2082 Rocket 2.3 22:49:39 10° NNW 22:55:22 76° WSW 22:58:58 23° SSE
SL-8 Rocket 4.1 22:50:46 10° S 22:57:02 81° W 23:03:18 10° N
ASTEX 1 4.4 22:52:43 10° NNE 22:57:07 31° E 22:58:41 25° ESE
Meteor 1-14 Rocket 4.2 22:54:12 10° SSW 22:59:52 84° W 23:05:29 10° N
Cosmos 1812 2.8 22:59:05 10° N 23:02:56 59° ENE 23:04:10 38° SE
DMSP B5D2-2 4.4 22:59:57 10° NNE 23:04:58 44° E 23:07:07 29° SSE
Cosmos 1331 Rocket 4.3 23:03:50 28° SSE 23:06:03 45° ESE 23:10:57 10° NNE
USA 245 4.4 23:05:04 19° SSW 23:07:10 38° W 23:11:10 10° NNW
Cosmos 1110 Rocket 4.0 23:10:42 25° S 23:13:37 60° ESE 23:18:45 10° NNE
Cosmos 2297 4.0 23:08:30 10° SSW 23:14:11 72° WNW 23:19:57 10° NNE
BREEZE-M DEB (TANK) 4.2 23:12:46 10° W 23:16:14 63° N 23:27:27 10° E
IGS 5A 3.4 23:17:59 42° SSE 23:19:19 75° ENE 23:23:30 10° N
ATLAS 2AS CENTAUR R/B 4.3 23:12:17 10° NW 23:19:35 34° NNE 23:26:40 10° E
Cosmos 2151 Rocket 4.0 23:16:23 17° SSW 23:19:44 62° W 23:24:15 10° N
CZ-4 R/B 3.9 23:15:24 10° N 23:20:06 72° WNW 23:23:30 18° SSW
Cosmos 1025 Rocket 4.0 23:20:17 10° N 23:24:15 32° ENE 23:25:09 30° E
Lacrosse 5 rocket 3.3 23:27:34 14° ENE 23:27:34 14° ENE 23:28:13 10° ENE
Meteor 1-11 Rocket 4.3 23:24:26 32° SE 23:26:20 42° E 23:31:42 10° NNE
NOSS 3-1 (C) 4.1 23:21:28 10° NW 23:28:54 73° NE 23:33:40 28° SE
BREEZE-M DEB (TANK) 2.8 23:32:00 10° WNW 23:34:14 47° N 23:39:03 10° E
Gbstr 26 Del rocket 3.0 23:29:46 10° WNW 23:34:49 82° SSW 23:35:56 50° SE
Cosmos 1300 Rocket 3.5 23:33:37 44° S 23:35:00 83° E 23:39:30 10° N
Cosmos 1486 Rocket 4.0 23:32:29 10° NNW 23:37:51 87° ENE 23:39:43 42° SSE
SL-8 R/B 3.9 23:33:13 10° WNW 23:38:02 68° N 23:41:13 21° E
USA 234 3.4 23:32:14 10° ENE 23:38:33 48° SE 23:43:02 19° SSW
Okean 1 Rocket 3.0 23:38:39 48° S 23:39:52 81° E 23:44:22 10° N
CZ-4C R/B 4.4 23:41:21 29° SW 23:42:40 38° W 23:46:34 10° NNW
H-2A R/B 2.6 23:42:13 29° SSW 23:44:46 53° W 23:49:57 10° NNW
Cosmos 2369 Rocket 3.0 23:45:04 32° ESE 23:45:21 32° ESE 23:50:17 10° NE
Cosmos 1356 4.0 23:49:09 48° ENE 23:49:09 48° ENE 23:52:06 10° NNE
Okean 1-7 Rocket 3.7 23:45:50 10° NNW 23:50:20 71° W 23:51:25 49° SSW
Timation 1 Rocket 4.5 23:46:57 12° SW 23:52:31 74° WNW 23:58:33 10° NNE
Cosmos 1400 Rocket 3.0 23:54:44 57° E 23:54:44 57° E 23:58:49 10° NNE
